RH
92 97 95 98 97 89 85 82 86 83 91 90 65 58 89 91 86 90 71 21 26 47 62 72 78 89 98 97 86 76 86 93 71 59 50 35 30 28 27 37 33 37 44 50 97
87 93 92 95 92 86 81 82 84 80 81 88 90 88 55 87 88 80 29 35 25 39 85 84 75 93 97 99 88 75 85 79 59 50 43 37 32 29 31 38 56 45 47 68 97
94 98 97 94 87 84 81 78 70 80 77 81 77 76 90 71 92 59 78 54 45 61 94 88 84 95 98 91 83 77 79 59 55 46 41 37 34 31 35 35 54 69 82 90 93
98 93 95 84 76 83 84 79 76 93 81 89 74 74 77 84 88 47 56 54 83 82 95 91 100 99 92 89 78 76 65 61 54 52 46 42 39 33 31 30 32 40 49 83 93
87 89 83 84 85 82 79 82 83 92 90 94 86 79 84 99 85 55 64 60 83 84 91 85 96 95 83 77 74 81 68 58 58 56 54 46 43 40 34 30 32 50 66 75 93
88 86 83 82 85 86 92 94 91 92 91 91 91 88 93 97 74 54 38 53 63 78 86 88 80 93 75 67 72 66 67 62 57 56 50 47 44 39 36 36 43 58 77 77 81
94 92 79 94 93 92 91 93 92 89 93 95 94 88 100 91 75 65 85 54 70 90 75 84 74 87 85 79 60 55 76 65 58 58 51 45 54 52 38 42 53 62 69 77 75
90 93 88 94 89 95 94 94 91 72 57 93 99 91 96 78 59 48 42 62 83 88 97 69 81 94 91 74 63 72 72 87 63 60 51 49 75 54 40 48 71 73 73 74 73
77 93 75 85 91 94 94 90 41 41 47 69 98 99 80 74 78 38 44 54 66 74 87 96 94 89 88 89 89 72 86 86 69 59 56 56 71 55 43 42 66 74 73 70 69
79 87 88 76 77 60 80 60 49 52 57 68 89 96 72 68 74 71 70 70 64 59 84 100 98 97 98 97 96 88 84 75 76 61 60 67 68 47 47 48 46 67 70 69 67
83 87 76 71 64 52 83 65 76 71 54 71 71 74 69 64 72 69 56 68 85 86 94 88 94 94 80 78 68 62 67 67 68 51 61 64 65 57 46 47 50 50 66 66 64
89 74 71 64 55 53 74 85 98 96 97 75 71 71 50 64 66 51 54 70 78 92 84 92 93 69 66 73 78 67 67 64 50 45 58 61 65 56 51 54 47 44 52 61 57
80 76 77 69 47 64 74 94 92 92 98 76 65 73 58 61 71 59 54 75 89 79 76 88 71 67 72 73 79 75 67 65 54 38 40 63 71 70 59 52 47 42 39 47 50
76 75 68 70 56 68 78 89 86 90 99 64 61 68 58 62 66 57 60 74 97 83 74 88 64 70 75 74 76 96 71 59 54 59 82 51 91 64 61 56 56 49 41 40 45
72 71 70 74 84 89 89 88 82 92 98 31 54 50 48 65 60 58 66 87 99 91 72 77 70 86 90 90 85 91 58 59 54 57 56 52 61 51 44 58 49 50 46 39 37
74 71 70 77 80 88 78 78 83 88 88 54 44 45 46 63 90 68 84 84 100 100 74 71 66 79 69 76 73 62 68 82 84 92 98 71 58 64 51 40 37 37 42 41 37
63 60 79 78 82 74 76 74 88 91 50 64 61 52 60 90 83 60 98 100 95 98 99 96 86 66 61 73 72 75 72 98 98 98 93 70 70 54 46 43 34 31 30 41 40
57 64 75 77 77 70 79 79 92 64 70 55 57 64 84 80 80 88 67 98 96 96 98 94 98 81 72 70 73 89 75 94 90 97 85 68 82 58 40 34 32 27 24 41 41
68 72 74 79 68 74 76 94 82 73 62 68 69 80 76 61 84 100 73 87 98 100 98 97 81 75 60 56 60 88 85 66 69 66 82 70 47 35 31 32 38 30 31 42 39
71 76 81 79 71 81 86 90 83 62 62 68 95 83 94 90 94 94 90 71 81 85 81 99 97 76 73 65 67 73 59 92 96 94 89 62 53 47 31 30 30 27 35 39 37
74 70 77 64 75 74 95 92 75 60 60 73 94 96 86 93 80 96 98 75 69 72 87 100 86 93 77 96 73 87 83 76 83 84 79 64 59 36 31 30 31 28 23 39 36
82 87 65 63 78 99 97 75 68 63 56 63 76 86 81 68 90 97 98 99 69 68 95 98 95 97 96 74 63 50 74 73 85 92 89 79 59 26 30 30 28 28 25 31 37
76 75 65 62 98 87 78 81 71 69 70 68 66 60 61 70 92 80 80 70 74 93 76 92 98 97 96 85 66 71 71 76 80 75 77 70 52 27 33 37 33 28 26 33 41
71 93 66 68 85 94 97 86 91 65 78 70 70 64 82 86 74 86 91 79 74 86 73 70 96 85 82 82 80 76 70 68 68 80 73 66 41 33 30 35 36 34 38 37 46
72 90 84 99 87 92 94 96 95 84 78 80 79 86 95 99 94 94 92 90 80 91 96 88 91 76 68 63 59 68 72 78 75 62 68 52 52 35 28 28 31 33 42 50 52
76 87 83 88 88 94 96 92 91 83 88 87 95 91 91 99 96 98 100 99 100 92 100 100 96 66 72 63 62 56 58 62 56 56 52 49 49 28 27 29 32 31 40 54 54
83 84 96 82 98 95 95 95 86 87 74 85 78 97 95 86 91 93 90 93 99 100 90 99 98 87 88 68 66 74 68 61 60 56 54 63 42 33 30 30 32 31 34 46 50
Wind_Speed
17 16 15 16 16 17 20 20 17 18 17 19 19 21 20 18 20 23 27 20 14 9 11 13 21 21 18 18 17 13 3 6 5 6 3 2 2 5 8 19 5 11 14 17 35
21 20 18 18 18 19 19 19 21 22 23 19 17 20 20 21 22 32 24 21 22 17 14 20 25 24 15 10 14 7 7 8 5 4 1 6 5 7 7 10 4 11 10 32 40
18 19 21 20 20 20 21 22 22 23 22 22 22 20 19 16 21 25 5 1 9 19 17 18 20 23 14 9 10 8 9 10 7 8 7 5 3 3 13 1 11 28 36 44 41
19 20 21 20 20 22 24 23 23 23 24 22 20 19 19 12 9 6 12 11 2 15 21 20 20 13 7 9 16 5 19 10 24 15 7 5 10 2 4 7 18 29 36 44 43
20 20 23 23 24 24 25 25 25 24 23 22 20 18 18 16 23 11 16 9 2 14 28 25 21 18 14 8 13 10 3 27 21 22 15 14 4 4 4 11 20 32 42 41 42
22 22 24 25 26 27 27 26 25 26 25 23 21 18 21 27 29 32 29 23 14 17 27 30 19 26 15 8 15 12 21 15 14 17 10 8 4 2 2 16 29 34 43 41 40
24 24 24 26 26 26 27 28 28 29 28 26 22 21 27 34 21 15 14 25 19 23 28 35 35 23 12 8 16 22 9 14 19 8 6 9 7 6 3 23 30 35 42 44 40
24 23 26 28 27 27 28 28 29 31 30 27 23 22 27 16 14 28 35 31 21 21 27 23 32 24 14 6 8 9 7 9 10 10 8 12 5 6 14 19 25 32 37 39 43
24 26 27 29 27 28 28 30 31 29 25 23 22 21 16 16 16 17 26 32 25 21 24 25 22 26 13 7 4 11 8 17 6 11 6 10 4 9 13 19 22 27 34 39 41
25 26 26 28 31 29 30 27 23 12 9 5 8 7 15 15 6 6 4 14 27 23 17 19 17 9 6 10 13 17 13 8 11 7 11 7 6 4 15 19 25 29 30 35 40
24 27 27 28 30 30 22 28 15 7 20 10 16 14 22 12 8 20 18 14 20 17 14 23 13 18 28 22 10 11 8 8 9 6 8 15 10 10 11 10 19 27 28 31 39
24 26 27 27 28 20 19 16 15 17 14 31 30 30 37 31 22 39 17 8 13 21 15 9 22 26 17 14 18 8 12 9 3 5 7 6 14 11 13 7 15 26 29 34 37
25 25 27 26 27 12 15 10 18 18 6 20 9 8 10 6 21 30 16 14 7 19 20 20 13 15 17 16 17 20 17 6 7 4 2 5 5 8 8 9 15 22 32 39 42
27 26 27 24 17 19 8 15 20 16 3 6 3 3 2 6 7 23 18 12 4 21 19 13 19 24 20 21 19 16 13 5 7 5 4 2 4 8 15 8 12 20 28 36 40
25 25 22 15 16 15 17 22 17 5 5 5 3 5 11 4 10 2 23 10 8 10 13 11 16 16 18 25 14 4 16 11 5 5 3 2 1 6 4 16 16 15 26 36 41
25 20 14 12 14 15 20 18 7 4 5 6 8 19 12 3 4 3 12 12 6 5 8 5 7 9 8 15 23 9 9 7 6 4 4 7 6 5 6 8 7 18 31 40 44
20 14 8 10 14 19 16 9 4 4 6 10 16 15 17 9 5 6 2 4 5 3 7 6 5 4 6 11 5 6 14 4 5 5 5 9 5 9 6 7 10 11 26 39 44
16 9 5 8 14 15 11 5 6 4 5 13 12 18 5 10 3 5 5 3 3 4 4 10 9 7 7 10 9 14 12 4 7 5 4 6 7 6 12 18 24 20 19 28 37
13 6 5 10 13 9 6 4 5 3 7 12 15 4 4 7 4 5 6 6 5 4 3 8 3 2 4 3 8 6 8 4 5 3 3 4 4 9 7 10 7 13 12 27 37
14 7 6 14 13 9 5 3 3 3 6 6 4 5 5 9 9 9 4 4 7 9 9 5 6 1 3 4 1 11 8 3 2 5 3 3 3 5 4 6 6 7 13 29 38
9 4 9 15 9 4 2 5 6 13 16 3 3 4 5 6 10 5 6 2 4 4 11 2 2 2 4 1 7 3 7 3 6 1 4 3 5 4 5 7 7 8 11 21 36
4 3 12 14 5 2 1 4 11 7 14 4 3 5 4 13 4 4 5 4 9 5 4 2 3 4 2 3 1 4 6 5 4 4 1 3 4 2 6 8 7 7 5 13 33
3 5 9 12 3 4 5 5 4 5 7 4 4 3 5 5 4 4 3 1 8 4 3 5 2 4 3 3 5 6 4 5 4 4 5 5 4 3 5 7 9 6 4 6 26
2 3 5 5 1 2 4 5 6 11 5 9 6 6 5 4 2 5 8 5 9 6 8 7 3 3 5 4 5 4 3 5 5 3 5 5 3 3 6 6 7 8 4 9 24
4 1 2 3 5 3 1 2 8 8 4 8 5 8 9 4 6 2 2 6 4 9 4 2 3 3 2 5 6 4 5 4 4 4 6 5 5 1 4 2 0 2 2 12 23
3 3 2 5 12 5 4 3 6 9 3 4 6 11 8 3 4 7 8 5 3 4 2 2 0 2 3 4 6 3 5 6 3 4 1 2 9 5 4 4 3 3 5 15 23
4 3 1 3 4 3 3 4 7 8 7 7 12 12 6 6 16 20 15 7 7 4 1 1 2 2 2 4 5 4 9 8 4 3 8 8 13 3 2 4 7 9 11 16 23
Wind_Direction
323 322 321 321 324 318 304 302 296 298 306 309 305 276 276 287 288 287 278 275 263 228 203 192 197 197 199 204 189 192 188 206 224 191 217 249 232 160 171 140 144 178 162 180 163
322 328 334 327 327 320 311 305 305 298 291 290 303 304 288 279 289 280 293 266 249 223 211 192 201 194 198 210 197 180 211 211 207 252 214 296 214 186 123 137 87 135 146 155 160
340 332 325 322 320 315 309 307 307 305 301 301 292 288 304 289 295 273 208 291 223 200 212 210 205 196 209 194 201 197 213 214 241 289 285 277 306 225 129 169 176 151 152 159 167
332 326 329 322 313 314 315 314 309 305 300 304 294 290 285 288 251 183 169 114 314 220 201 208 207 203 197 206 198 200 218 238 242 269 341 328 328 245 161 188 178 166 164 166 174
327 326 322 321 318 318 315 312 309 307 302 299 294 288 281 257 242 194 220 289 134 197 200 205 213 208 209 192 178 215 197 226 246 257 287 284 277 295 238 158 172 164 167 174 178
328 325 322 320 318 316 313 311 308 303 298 295 290 283 274 258 257 253 244 262 228 223 219 213 216 211 215 224 199 195 220 235 235 245 252 225 234 199 187 157 165 169 170 178 183
326 325 324 322 323 318 313 309 305 297 294 292 290 279 269 253 256 250 238 244 242 228 229 227 219 204 216 219 218 220 197 231 244 219 233 203 264 189 155 174 170 179 179 181 184
327 326 326 324 325 321 316 312 304 300 298 289 285 276 264 262 271 265 254 255 231 223 233 249 225 224 223 233 180 192 200 227 238 184 213 167 240 222 201 178 175 181 182 184 188
324 324 324 324 327 323 321 315 314 312 298 285 270 257 270 271 252 267 248 250 238 231 234 235 217 217 200 206 195 191 206 216 237 188 182 189 221 217 214 187 187 187 187 189 192
328 330 328 328 327 330 325 324 333 329 328 333 239 260 261 253 253 284 304 269 250 241 242 209 200 200 208 200 204 188 194 191 204 196 190 195 205 227 217 187 195 195 195 193 194
329 327 330 328 329 334 335 341 357 342 314 271 263 251 262 238 264 281 285 306 229 238 220 196 204 206 209 205 199 205 171 181 189 200 173 220 211 223 206 192 190 196 197 196 199
327 327 331 328 333 332 333 346 343 319 294 298 279 271 266 264 278 269 260 241 193 223 214 191 212 215 214 198 205 198 206 194 157 156 183 216 229 220 225 201 200 199 200 199 204
330 329 329 329 332 330 344 354 329 335 281 301 292 272 313 279 227 255 203 199 235 220 212 225 227 205 201 201 199 213 204 180 152 136 134 150 256 219 241 219 211 218 215 209 205
327 329 331 331 337 333 358 344 338 334 319 281 293 327 332 313 261 251 207 186 275 212 218 222 249 192 187 215 198 200 194 173 148 118 202 194 245 229 215 215 220 215 217 212 207
324 327 329 340 333 339 336 331 329 341 333 298 300 323 316 204 281 267 188 146 236 219 189 202 210 212 203 204 185 213 185 175 138 139 53 261 122 274 191 218 221 223 218 219 215
324 329 331 339 335 331 324 320 325 48 263 305 324 326 325 277 262 93 159 159 149 298 224 178 171 186 204 178 188 186 110 67 52 81 218 210 162 254 206 197 215 226 222 220 217
337 341 348 344 335 332 330 332 33 111 319 339 322 325 320 323 306 194 292 134 170 213 164 169 162 180 167 181 126 192 141 154 191 194 214 178 181 239 231 226 205 217 223 214 210
347 352 3 328 327 332 333 47 67 259 281 316 318 312 13 0 311 320 166 155 181 184 327 166 196 177 167 198 180 179 167 165 190 181 168 116 224 249 225 232 239 240 261 207 199
352 356 353 341 350 344 342 43 207 264 320 328 322 319 319 354 312 318 185 186 137 170 229 192 188 142 146 127 145 172 196 141 97 25 64 209 273 304 232 250 237 238 211 195 195
341 343 14 340 332 331 65 263 242 286 304 321 307 356 310 333 332 342 9 8 163 170 148 277 107 345 129 114 75 179 134 140 335 127 190 286 292 224 311 302 301 251 211 200 200
334 359 1 346 342 12 116 242 286 299 309 285 271 288 281 315 327 307 352 17 21 175 148 264 56 355 98 153 166 119 182 123 120 17 166 147 253 220 264 277 291 249 224 200 199
339 39 12 4 41 6 326 280 298 297 327 290 232 243 278 326 307 310 348 335 339 342 155 75 96 112 133 189 321 278 164 138 143 220 161 125 279 296 271 269 265 253 196 202 200
40 339 17 24 49 345 294 288 278 316 320 327 289 290 329 303 336 325 315 306 7 342 163 171 41 88 86 347 88 260 145 117 108 107 201 143 243 317 4 10 4 99 147 165 189
26 26 14 23 41 265 321 297 320 317 291 337 280 324 344 321 303 307 327 347 338 355 28 143 139 165 174 188 137 169 121 143 133 134 163 220 177 352 3 15 11 31 56 168 172
33 22 47 306 316 302 241 287 311 343 326 332 324 2 336 322 327 321 346 305 351 5 44 87 150 107 17 170 152 145 144 153 145 155 163 267 194 127 11 206 51 28 53 163 161
69 29 345 281 299 356 343 290 323 330 276 308 330 325 311 271 315 314 340 10 303 1 50 327 293 127 66 95 81 104 169 163 154 174 164 319 292 161 99 116 152 170 149 165 164
42 5 345 334 330 39 259 313 293 326 296 277 313 304 301 333 309 291 280 262 262 297 336 54 120 92 186 95 63 338 210 180 160 182 166 208 234 82 75 220 214 192 185 182 180